Weather History for Douglas, WY

Change the Weather History Date:

Sunday, December 2, 2012

  Actual Average Record
Temperature  
Mean Temperature 48 °F 26 °F  
Max Temperature 60 °F 39 °F 60 °F (2012)
Min Temperature 35 °F 13 °F -7 °F (2011)
Degree Days  
Heating Degree Days 17 39  
Month to date heating degree days 33 78  
Since 1 July heating degree days 1580 1900  
Cooling Degree Days 0 0  
Month to date cooling degree days 0 0  
Year to date cooling degree days 831 486  
Moisture  
Dew Point 25 °F    
Average Humidity 44    
Maximum Humidity 64    
Minimum Humidity 24    
Precipitation  
Precipitation 0.00 in 0.01 in 0.09 in (2008)
Month to date precipitation 0.00 0.03  
Year to date precipitation 5.26 13.02  
Sea Level Pressure  
Sea Level Pressure 29.66 in    
Wind  
Wind Speed 16 mph (SSW)    
Max Wind Speed 38 mph    
Max Gust Speed 52 mph    
Visibility 10 miles    
Events      
T = Trace of Precipitation, MM = Missing Value Source: NWS Daily Summary

Daily Weather History Graph

Daily Weather History Graph

Search for Another Location

Airport:

Trip Planner

Search our weather history database for the weather conditions in past years. The results will help you decide how hot, cold, wet, or windy it might be!

Date:

Astronomy

Dec. 02, 2012 Rise Set
Actual Time 7:14 AM MST 4:28 PM MST
Civil Twilight 6:42 AM MST 4:59 PM MST
Nautical Twilight 6:07 AM MST 5:35 PM MST
Astronomical Twilight 5:32 AM MST 6:09 PM MST
Moon 8:20 PM MST (12/2) 10:03 AM MST (12/2)
Length of Visible Light 10h 17m
Length of Day
9h 14m
Waning Gibbous, 85% of the Moon is Illuminated
Dec 2
Waning Gibbous
Dec 6
Last Quarter
Dec 13
New
Dec 19
First Quarter
Dec 28
Full

Hourly Weather History & Observations

Time (MST) Temp. Windchill Dew Point Humidity Pressure Visibility Wind Dir Wind Speed Gust Speed Precip Events Conditions
12:53 AM 45.0 °F 39.7 °F 24.1 °F 44% 29.84 in 10.0 mi SW 10.4 mph - N/A   Clear
1:53 AM 46.0 °F 40.2 °F 25.0 °F 44% 29.85 in 10.0 mi SW 12.7 mph - N/A   Clear
2:53 AM 46.0 °F 41.4 °F 26.1 °F 46% 29.86 in 10.0 mi WSW 9.2 mph - N/A   Clear
3:53 AM 39.0 °F 35.7 °F 25.0 °F 57% 29.87 in 10.0 mi ESE 4.6 mph - N/A   Clear
4:53 AM 37.0 °F 31.6 °F 26.1 °F 65% 29.88 in 10.0 mi SE 6.9 mph - N/A   Clear
5:53 AM 39.0 °F 34.0 °F 27.0 °F 62% 29.85 in 10.0 mi SE 6.9 mph - N/A   Clear
6:53 AM 48.0 °F - 27.0 °F 44% 29.81 in 10.0 mi SSW 16.1 mph - N/A   Clear
7:53 AM 44.1 °F 37.4 °F 26.1 °F 49% 29.81 in 10.0 mi South 13.8 mph - N/A   Clear
8:53 AM 51.1 °F - 25.0 °F 36% 29.78 in 10.0 mi SSE 17.3 mph 25.3 mph N/A   Clear
9:53 AM 54.0 °F - 23.0 °F 30% 29.71 in 10.0 mi South 11.5 mph 25.3 mph N/A   Clear
10:53 AM 57.0 °F - 23.0 °F 27% 29.67 in 10.0 mi South 16.1 mph 20.7 mph N/A   Clear
11:53 AM 57.9 °F - 21.9 °F 25% 29.61 in 10.0 mi South 21.9 mph 28.8 mph N/A   Clear
12:53 PM 57.9 °F - 21.9 °F 25% 29.60 in 10.0 mi SSE 18.4 mph 24.2 mph N/A   Clear
1:53 PM 60.1 °F - 24.1 °F 25% 29.56 in 10.0 mi SSW 23.0 mph 31.1 mph N/A   Clear
2:53 PM 59.0 °F - 25.0 °F 27% 29.53 in 10.0 mi SSW 15.0 mph 20.7 mph N/A   Clear
3:53 PM 57.0 °F - 24.1 °F 28% 29.56 in 10.0 mi SW 17.3 mph - N/A   Clear
4:53 PM 57.0 °F - 24.1 °F 28% 29.54 in 10.0 mi SSW 20.7 mph 28.8 mph N/A   Clear
5:53 PM 55.9 °F - 24.1 °F 29% 29.55 in 10.0 mi SW 12.7 mph - N/A   Clear
6:53 PM 52.0 °F - 25.0 °F 35% 29.53 in 10.0 mi SSE 6.9 mph - N/A   Clear
7:53 PM 57.0 °F - 23.0 °F 27% 29.50 in 10.0 mi WSW 28.8 mph 42.6 mph N/A   Clear
8:53 PM 57.0 °F - 24.1 °F 28% 29.45 in 10.0 mi SW 32.2 mph 44.9 mph N/A   Clear
9:53 PM 53.1 °F - 27.0 °F 37% 29.52 in 10.0 mi West 16.1 mph - N/A   Clear
10:53 PM 52.0 °F - 28.9 °F 41% 29.51 in 10.0 mi WSW 15.0 mph 27.6 mph N/A   Clear
11:53 PM 53.1 °F - 30.9 °F 43% 29.52 in 10.0 mi WSW 27.6 mph 39.1 mph N/A   Clear